This is the latest recevied weather packets stored in our database for station/object CH79EN-13. If no packets are shown the sender has not sent any weather packets the latest 10 day(s).
| Time | Temp. | Humidity | Pressure | Rain* | Wind** | Luminosity | Snow |
|---|---|---|---|---|---|---|---|
| 1788283368 | 24.44° C | 99% | 1025.8 hPa | 0 mm | - | 0 W/m² | - |
| 1788283215 | 24.44° C | 99% | 1025.8 hPa | 0 mm | - | 0 W/m² | - |
| 1788283063 | 24.44° C | 99% | 1025.8 hPa | 0 mm | - | 0 W/m² | - |
| 1788282910 | 25° C | 99% | 1025.8 hPa | 0 mm | - | 0 W/m² | - |
| 1788282758 | 24.44° C | 99% | 1025.9 hPa | 0 mm | - | 0 W/m² | - |
| 1788282605 | 25° C | 99% | 1025.9 hPa | 0 mm | - | 0 W/m² | - |
| 1788282453 | 25° C | 99% | 1025.8 hPa | 0 mm | - | 0 W/m² | - |
| 1788282148 | 25.56° C | 99% | 1025.9 hPa | 0 mm | - | 0 W/m² | - |
| 1788281995 | 25.56° C | 99% | 1025.9 hPa | 0 mm | - | 0 W/m² | - |
| 1788281843 | 26.11° C | 99% | 1025.8 hPa | 0 mm | - | 0 W/m² | - |
| 1788281690 | 26.11° C | 99% | 1025.8 hPa | 0 mm | - | 0 W/m² | - |
| 1788281538 | 26.11° C | 99% | 1025.9 hPa | 0 mm | - | 0 W/m² | - |
| 1788281385 | 26.67° C | 99% | 1025.9 hPa | 0 mm | - | 0 W/m² | - |
| 1788281233 | 26.67° C | 99% | 1025.8 hPa | 0 mm | - | 0 W/m² | - |
| 1788281080 | 26.67° C | 99% | 1026 hPa | 0 mm | - | 0 W/m² | - |
| 1788280928 | 26.11° C | 99% | 1025.9 hPa | 0 mm | - | 0 W/m² | - |
| 1788280775 | 26.11° C | 99% | 1025.9 hPa | 0 mm | - | 0 W/m² | - |
| 1788280623 | 25.56° C | 99% | 1025.9 hPa | 0 mm | - | 0 W/m² | - |
| 1788280470 | 25.56° C | 99% | 1025.9 hPa | 0 mm | - | 0 W/m² | - |
| 1788280318 | 26.67° C | 99% | 1025.9 hPa | 0 mm | - | 0 W/m² | - |
| 1788280165 | 26.67° C | 99% | 1025.9 hPa | 0 mm | - | 0 W/m² | - |
| 1788280013 | 26.67° C | 99% | 1025.9 hPa | 0 mm | - | 0 W/m² | - |
| 1788279708 | 25.56° C | 99% | 1026 hPa | 0 mm | - | 0 W/m² | - |
| 1788279555 | 25° C | 99% | 1026 hPa | 0 mm | - | 0 W/m² | - |
| 1788279403 | 25° C | 99% | 1026 hPa | 0 mm | - | 0 W/m² | - |
* Rain since midnight (hover to see other rain measurements)
** Current wind speed in m/s (hover to see current wind gust speed)